Regional Weather Roundup
Issued by NWS Nashville, TN

Home | Current Version | Previous Version | Text Only | Print | Product List | Glossary On
Versions: 1 2 3 4 5 6 7 8 9 10 11 12 13 14 15 16 17 18 19 20 21 22 23 24 25 26 27 28 29 30 31 32 33 34 35 36 37 38 39 40 41 42 43 44 45 46 47 48 49 50
000
ASUS44 KOHX 291315
RWROHX
MIDDLE TENNESSEE HOURLY WEATHER ROUNDUP
NATIONAL WEATHER SERVICE NASHVILLE TN
800 AM CDT SUN MAR 29 2015

NOTE: "FAIR" INDICATES FEW OR NO CLOUDS BELOW 12,000 FEET WITH
NO SIGNIFICANT WEATHER AND/OR OBSTRUCTIONS TO VISIBILITY.

* THESE REPORTS ARE NOT UNDER NWS QUALITY CONTROL AND MAY NOT
  REPORT WEATHER SUCH AS PRECIPITATION AND FOG.


TNZ005>011-023>034-057-059-062>066-078-080-291400
...NORTHERN MIDDLE TENNESSEE...

CITY           SKY/WX    TMP DP  RH WIND       PRES   REMARKS
CLARKSVILLE    SUNNY     30  22  72 SE7       30.32R WCI  23
CROSSVILLE     SUNNY     31  14  49 E5        30.32R WCI  26
GALLATIN         N/A     28  22  78 CALM      30.36R
LIVINGSTON       N/A     34  15  46 SE7       30.33R WCI  28
NASHVILLE      MOSUNNY   32  20  61 SE5       30.35R WCI  27
PORTLAND       SUNNY     30  18  59 SE7       30.32R WCI  23
SMYRNA         SUNNY     27  23  84 CALM      30.37R
SPARTA         SUNNY     30  21  69 CALM      30.33R
$$
TNZ056-058-060-061-075>077-079-093>097-291400
...SOUTHERN MIDDLE TENNESSEE...

CITY           SKY/WX    TMP DP  RH WIND       PRES   REMARKS
COLUMBIA       SUNNY     28  28 100 CALM      30.33R
LEWISBURG      SUNNY     27  21  77 CALM      30.34R
MCMINNVILLE    SUNNY     30  21  69 E15       30.34R WCI  19
MURFREESBORO   SUNNY     28  22  78 E3        30.34S
SHELBYVILLE    SUNNY     30  21  69 E5        30.35S WCI  25
TULLAHOMA      SUNNY     30  18  59 SE5       30.33S WCI  25
WINCHESTER     SUNNY     32  21  64 E6        30.35R WCI  26
$$


...KEY TO REMARKS...
VSB - VISIBILITY IN MILES
WCI - WIND CHILL INDEX
HX  - HEAT INDEX



USA.gov is the U.S. government's official web portal to all federal, state and local government web resources and services.